Home > Weather > Tartu > Past weeks

Flag for Estonia Past Weather in Tartu, Estonia — Yesterday and Last 2 Weeks

Now
61 °F

Refreshingly cool.


Feels Like: 61 °F
Forecast: 53 / 74 °F
Wind: 1 mph from North

Location: Tartu/Ulenurme

Current Time: May 25, 2016 at 12:48:03 AM

Latest Report: May 24, 2016 at 11:50 PM


Visibility: N/A

Pressure: 29.89 "Hg

Humidity: 55%

Dew Point: 45 °F

Location of TartuLocation

Past Weather in Tartu — Graph

°F

Tartu Temperature Yesterday

Maximum temperature yesterday: 73 °F (at 3:50 PM)
Minimum temperature yesterday: 46 °F (at 4:50 AM)
Average temperature yesterday: 63 °F

High & Low Weather Summary for the Past Weeks

 TemperatureHumidityPressure
High75 °F (May 10, 5:50 PM)93% (May 20, 4:50 AM)30.21 "Hg (May 20, 4:50 AM)
Low36 °F (May 18, 3:50 AM)24% (May 10, 5:50 PM)29.53 "Hg (May 14, 10:50 AM)
Average56 °F55%29.86 "Hg
* Reported May 9 10:50 PM — May 24 10:50 PM, Tartu, Weather by CustomWeather, © 2016

Note: Actual official high and low records may vary slightly from our data, if they occured in-between our weather recording intervals... More about our weather records

Advertising

Tartu Weather History for the Previous 24 Hours

Scroll right to see more
 ConditionsComfort  
Time TempWeatherWind HumidityBarometerVisibility
10:50 PM
Tue, May 24
63 °FPassing clouds.3 mph52%29.89 "HgN/A
9:50 PM66 °FMild.5 mph46%29.89 "HgN/A
8:50 PM70 °FMild.8 mph43%29.89 "HgN/A
7:50 PM72 °FMild.9 mph41%29.89 "HgN/A
6:50 PM73 °FPassing clouds.9 mph38%29.89 "HgN/A
5:50 PM73 °FPassing clouds.8 mph38%29.92 "HgN/A
4:50 PM73 °FPassing clouds.8 mph38%29.92 "HgN/A
3:50 PM73 °FPassing clouds.10 mph38%29.92 "HgN/A
2:50 PM72 °FPassing clouds.13 mph38%29.95 "HgN/A
1:50 PM72 °FPassing clouds.10 mph38%29.98 "HgN/A
12:50 PM70 °FPassing clouds.10 mph40%29.98 "HgN/A
11:50 AM70 °FPassing clouds.9 mph43%30.01 "HgN/A
10:50 AM68 °FPassing clouds.7 mph43%30.01 "HgN/A
9:50 AM66 °FPassing clouds.7 mph49%30.01 "HgN/A
8:50 AM63 °FPassing clouds.5 mph56%30.04 "HgN/A
7:50 AM59 °FCool.5 mph68%30.04 "HgN/A
6:50 AM54 °FCool.2 mph82%30.04 "HgN/A
5:50 AM48 °FCool.1 mph82%30.01 "HgN/A
4:50 AM46 °FCool.No wind87%30.04 "HgN/A
3:50 AM50 °FCool.No wind76%30.01 "HgN/A
2:50 AM52 °FCool.No wind77%30.01 "HgN/A
1:50 AM54 °FCool.No wind72%30.04 "HgN/A
12:50 AM54 °FCool.No wind67%30.04 "HgN/A
Weather by CustomWeather, © 2016

See weather overviewHow to use our weather pages